{"data":{"norad_id":67620,"intl_designator":"2026-020D","name":"STARLINK-36607","alt_names":[],"object_type":"PAYLOAD","status":"ACTIVE","operator":null,"country":"US","launch_date":"2026-01-30","launch_site_code":"AFETR","launch_vehicle":null,"mission":null,"orbit_class":"UNKNOWN","rcs_meters":null,"size_class":null,"mass_kg":null,"dimensions":null,"purposes":["comms"],"wikipedia_slug":null,"has_3d_model":false,"image_url":null,"decayed_at":null,"tle_current":{"epoch":"2026-09-19T08:07:30.557568Z","epoch_age_seconds":169255,"freshness":"FRESH","line1":"1 67620U 26020D   26262.33854812  .00012386  00000+0  45857-3 0  9994","line2":"2 67620  43.0019 125.8049 0001585 269.7074  90.3596 15.27601171 35734","mean_motion":15.27601171,"eccentricity":0.0001585,"inclination_deg":43.0019,"raan_deg":125.8049,"arg_perigee_deg":269.7074,"mean_anomaly_deg":90.3596,"bstar":0.00045857,"rev_number":3573,"period_min":94.265442272301,"perigee_km":481.89821523311,"apogee_km":484.07319113002,"semimajor_km":6861.1227031816,"source":"CELESTRAK","updated_at":"2026-09-20T09:00:43.610421Z"}}}